Content
SEND FEEDBACK

Daily
Averages
Monthly
Summary
United States of America

SHARON, PENNSYLVANIA


Home > North America > United States > Pennsylvania
Elevation: 1114 feet     Latitude: 41 13N     Longitude: 080 14W

WEATHER
 
SELECT A DAY
Number of Records: 95,295;   Date Range: 2/10/06 - 7/29/14
 
SHARE

PRINT THIS DATA

[ ← Previous Day ]
WEATHER ALMANAC - FEBRUARY 13, 2013
[ Next Day → ]
[ °C ]   °F
Weather ElementAverageHighLow
Temperature26.7 °F34.9 °F (2:56 pm)18.1 °F (5:56 am)
Dewpoint21.8 °F26.1 °F (2:56 pm)16.2 °F (6:56 am)
Humidity82.3 %96 % (3:56 am)69 % (5:56 pm)
Barometer29.88 in29.98 in (1:56 am)29.78 in (2:56 pm)
Wind Speed2.3 mph8.1 mph (4:56 pm)
Weather ElementAverage
Visibility7.7 mi
Wind DirectionESE (108.7 °)

Weather ElementTotal
Precipitation---
Heating Degree Days38.5 (Base 65)
Averaged from 23 records on February 13, 2013
WEATHER CONDITIONS BREAKOUT
WIND DIRECTION BREAKOUT
WEATHER BY HOUR - FEBRUARY 13, 2013
[ °C ]   °F
Local TimeTemperatureDewpointHumidityBarometerVisibilityWind DirectionWind SpeedGust SpeedPrecipitationEventsConditions
1:56 AM22.1 °F20.1 °F92 %29.98 in6.0 miCalmClear
2:56 AM20.1 °F18.1 °F92 %29.97 in4.0 miNE (50°)4.6 mphClear
3:56 AM19.0 °F18.1 °F96 %29.96 in5.0 miCalmClear
4:56 AM19.0 °F18.1 °F96 %29.95 in5.0 miCalmClear
5:56 AM18.1 °F17.1 °F96 %29.94 in4.0 miCalmClear
6:56 AM18.1 °F16.2 °F92 %29.93 in4.0 miCalmClear
7:56 AM20.1 °F18.1 °F92 %29.91 in4.0 miCalmClear
8:56 AM23.0 °F21.0 °F92 %29.89 in4.0 miCalmClear
9:56 AM27.1 °F23.0 °F84 %29.87 in7.0 miNE (40°)4.6 mphClear
10:56 AM31.1 °F25.2 °F79 %29.88 in9.0 miNNE (30°)4.6 mphPartly Cloudy
11:56 AM32.9 °F25.2 °F73 %29.87 in9.0 miCalmScattered Clouds
12:56 PM34.0 °F25.2 °F70 %29.83 in10.0 miCalmScattered Clouds
1:56 PM34.0 °F25.2 °F70 %29.80 in10.0 miCalmClear
2:56 PM34.9 °F26.1 °F70 %29.78 in10.0 miCalmPartly Cloudy
3:56 PM34.9 °F26.1 °F70 %29.79 in10.0 miWNW (300°)4.6 mphClear
4:56 PM34.0 °F25.2 °F70 %29.80 in10.0 miNW (310°)8.1 mphClear
5:56 PM32.0 °F23.0 °F69 %29.82 in10.0 miWNW (300°)4.6 mphClear
6:56 PM31.1 °F23.0 °F72 %29.83 in10.0 miWNW (300°)4.6 mphClear
7:56 PM29.1 °F23.0 °F78 %29.86 in10.0 miNW (320°)6.9 mphClear
8:56 PM27.1 °F23.0 °F84 %29.89 in10.0 miWNW (300°)3.5 mphClear
9:56 PM25.2 °F21.0 °F84 %29.91 in9.0 miWest (270°)3.5 mphClear
10:56 PM25.2 °F21.0 °F84 %29.92 in8.0 miWest (280°)3.5 mphClear
11:56 PM23.0 °F20.1 °F89 %29.93 in8.0 miCalmClear
Hourly data recorded from KUCP, located miles away from Sharon, Pennsylvania







STORIES FROM OUR PARTNERS